This demonstration page uses our WeatherBlox Daily Observations layout. Learn more.

Left ArrowRight Arrow

30.21309, -93.2044

Hourly Observations for April 9, 2022

Temp ( °F °C ) Dew Point ( °F °C ) Humidity (%) Winds ( mph kmh ) Pressure ( in mb ) Visibility ( mi km ) Precip ( " mm )
12:15 am 00:15 Clear 55 12.9 32 0 41 41 NW 6 9 30.15 1021 10 16 0.00 0.00
12:35 am 00:35 Clear 55 13 31 -0.6 39 39 NW 5 7 30.15 1021 10 16 0.00 0.00
12:55 am 00:55 Clear 56 13.3 31 -0.8 38 38 NW 5 7 30.15 1021 10 16 0.00 0.00
1:15 am 01:15 Clear 56 13.1 31 -0.6 39 39 NW 5 7 30.15 1021 10 16 0.00 0.00
1:35 am 01:35 Clear 54 12.3 32 -0.2 42 42 NW 6 9 30.15 1021 10 16 0.00 0.00
1:55 am 01:55 Clear 54 12.2 32 -0.1 43 43 NW 5 7 30.15 1021 10 16 0.00 0.00
2:15 am 02:15 Clear 54 12.3 32 -0.2 42 42 NW 5 7 30.15 1021 10 16 0.00 0.00
2:35 am 02:35 Clear 54 12 32 -0.2 43 43 NW 3 6 30.14 1021 10 16 0.00 0.00
2:55 am 02:55 Clear 53 11.4 33 0.5 47 47 WNW 3 6 30.13 1020 10 16 0.00 0.00
3:15 am 03:15 Clear 52 11.2 34 1 50 50 WNW 5 7 30.13 1020 10 16 0.00 0.00
3:35 am 03:35 Clear 52 11.2 34 1.2 50 50 WNW 5 7 30.14 1021 10 16 0.00 0.00
3:55 am 03:55 Clear 51 10.7 36 2.2 56 56 W 3 6 30.14 1021 10 16 0.00 0.00
4:15 am 04:15 Clear 52 11.3 34 1.1 50 50 W 3 6 30.13 1020 10 16 0.00 0.00
4:35 am 04:35 Clear 47 8.1 36 2.1 66 66 Calm 30.13 1020 10 16 0.00 0.00
4:55 am 04:55 Clear 46 7.7 35 1.8 67 67 Calm 30.13 1020 10 16 0.00 0.00
5:15 am 05:15 Clear 45 7.3 35 1.9 69 69 Calm 30.14 1021 10 16 0.00 0.00
5:35 am 05:35 Clear 48 8.7 36 2.3 64 64 WNW 5 7 30.14 1021 10 16 0.00 0.00
6:00 am 06:00 Mostly Clear 45 7 36 2 71 71 Calm 30.14 1021 10 16 0.00 0.00
6:50 am 06:50 Mostly Clear 39 4 34 1 81 81 SW 6 9 30.15 1021 10 16 0.00 0.00
7:53 am 07:53 Mostly Sunny 54 12 37 3 54 54 W 7 11 30.18 1022 10 16 0.00 0.00
8:55 am 08:55 Mostly Sunny 61 16 36 2 39 39 W 7 11 30.19 1022 10 16 0.00 0.00
9:55 am 09:55 Mostly Sunny 66 19 30 -1 26 26 W 12 19 30.19 1022 10 16 0.00 0.00
10:55 am 10:55 Mostly Sunny 70 21 28 -2 21 21 NW 13 20 30.19 1022 10 16 0.00 0.00
11:55 am 11:55 Mostly Sunny 72 22 28 -2 20 20 W 7 11 30.17 1022 10 16 0.00 0.00
12:47 pm 12:47 Mostly Sunny 73 23 28 -2 19 19 WSW 7 11 30.15 1021 10 16 0.00 0.00
2:45 pm 14:45 Mostly Sunny 77 25 34 1 21 21 WSW 18 30 30.10 1019 10 16 0.00 0.00
3:45 pm 15:45 Mostly Sunny 75 24 39 4 27 27 SSW 15 24 30.07 1018 10 16 0.00 0.00
4:50 pm 16:50 Mostly Sunny 75 24 45 7 34 34 SW 17 28 30.06 1018 10 16 0.00 0.00
5:45 pm 17:45 Mostly Sunny 73 23 48 9 41 41 SSW 15 24 30.05 1018 10 16 0.00 0.00
6:55 pm 18:55 Mostly Sunny 70 21 50 10 50 50 SSW 16 26 30.04 1017 10 16 0.00 0.00
7:45 pm 19:45 Mostly Clear 64 18 52 11 64 64 S 9 15 30.03 1017 10 16 0.00 0.00
8:50 pm 20:50 Mostly Clear 61 16 54 12 77 77 S 7 11 30.04 1017 10 16 0.00 0.00
9:45 pm 21:45 Mostly Clear 55 13 52 11 88 88 S 7 11 30.05 1018 10 16 0.00 0.00
10:15 pm 22:15 Clear 56 13.5 53 11.5 88 88 S 6 9 30.05 1018 10 16 0.00 0.00
10:35 pm 22:35 Clear 59 14.9 55 12.5 86 86 S 7 11 30.04 1017 10 16 0.00 0.00
10:55 pm 22:55 Clear 59 15 55 12.6 86 86 S 7 11 30.04 1017 10 16 0.00 0.00
11:15 pm 23:15 Clear 59 15.1 55 12.9 87 87 S 7 11 30.04 1017 10 16 0.00 0.00
11:35 pm 23:35 Clear 59 14.8 55 12.8 88 88 S 7 11 30.04 1017 10 16 0.00 0.00
11:55 pm 23:55 Clear 58 14.6 55 12.7 88 88 S 7 11 30.03 1017 10 16 0.00 0.00

Powered by AerisWeather